User: anonymous   Login
Location: Chassagnes
(44.4047°N, 4.1657°E)
Time: 12:35:49
(UTC+00:00)
Language:

USA 306 - Orbit

View from above orbital plane
View from above orbital plane
View from above satellite
View from above satellite

Ground track
Ground track

The orbit data is extracted from the following two-line orbital elements,

1 45874U 20046B   21011.78883308 0.00001656  00000-0  13759-3 0    09
2 45874  53.9794 224.4417 0006435  63.1983 296.8016 14.98278561    02
Epoch (UTC): 11 January 2021 18:55:55
Eccentricity: 0.0006435
inclination: 53.9794°
perigee height: 568 km
apogee height: 576 km
right ascension of ascending node: 224.4417°
argument of perigee: 63.1983°
revolutions per day: 14.98278561
mean anomaly at epoch: 296.8016°
orbit number at epoch: 0

The dashed part of the orbit path shows where the satellite is in the earth's shadow,  

DLR